RH
26 25 26 26 25 25 24 24 24 24 23 22 20 19 19 19 19 19 19 19 19 18 18 17 17 16 17 18 18 17 17 17 17 17 19 20 23 26 27 28 29 30 32 33 35 38 39 39 39 39 39 38 36 36 36 36 36 36 36 35 35 35 35 35 35 35 36 36 36 37 38 39 39 39 40 40 40 40 40 41 40 40 39 39 38
27 25 24 25 25 24 24 23 23 23 23 23 21 20 19 18 18 19 19 18 18 18 17 17 16 15 16 16 17 16 16 17 17 16 17 19 20 23 25 26 27 28 30 30 32 35 37 38 38 38 38 37 37 37 36 36 36 36 37 37 38 39 39 39 40 40 39 38 39 40 40 40 40 40 40 40 41 40 41 41 40 40 39 39 38
27 25 24 24 24 25 24 23 23 23 23 22 22 21 19 18 18 18 18 18 18 17 17 16 15 15 15 15 15 15 15 17 18 16 17 18 19 21 22 23 24 26 28 29 30 33 35 36 37 37 37 37 38 37 37 36 37 37 37 37 38 39 40 41 42 42 42 41 41 41 41 41 41 41 40 40 40 40 41 41 39 38 38 37 36
28 25 23 23 24 24 24 23 23 22 22 21 22 21 20 19 18 17 18 17 17 17 16 15 15 14 15 14 14 13 14 17 19 20 19 19 20 21 23 24 23 23 25 27 29 31 34 34 35 35 35 36 36 36 35 35 35 36 36 36 37 38 39 40 41 42 42 41 40 40 41 41 41 41 41 41 41 40 40 39 38 36 36 35 35
28 25 24 23 24 23 23 23 23 22 22 21 21 21 22 21 19 17 17 17 15 15 15 14 14 14 14 13 13 13 14 17 20 21 21 21 21 22 22 23 24 22 21 22 24 27 30 30 30 30 30 30 31 31 31 31 31 33 34 34 35 36 38 38 39 40 40 40 39 39 40 40 41 42 42 41 40 40 39 38 36 36 35 34 33
28 25 25 24 23 22 22 23 23 22 21 21 21 21 22 21 20 19 17 16 15 14 14 13 12 12 13 13 13 13 15 17 19 20 22 22 21 21 21 22 23 23 21 21 21 22 23 24 24 25 26 25 26 27 28 28 28 29 31 32 33 35 36 37 37 37 38 39 40 41 41 41 41 43 43 43 41 40 39 37 36 35 33 31 32
29 26 25 24 22 21 21 21 22 22 21 21 21 21 21 21 20 20 19 17 16 14 13 12 11 11 12 12 13 14 16 17 18 19 20 21 20 20 19 20 21 21 21 21 21 20 20 21 21 22 23 24 24 24 25 27 27 28 30 32 33 35 36 36 36 37 37 39 40 41 41 42 41 41 40 39 38 37 34 34 35 36 36 37 39
30 26 25 25 23 21 20 20 21 21 21 21 21 21 21 21 20 20 19 18 16 14 12 12 11 11 11 12 14 15 17 18 18 18 19 20 19 18 18 18 19 19 20 20 20 20 19 19 20 20 21 21 22 22 24 25 27 29 31 33 35 36 36 36 37 37 38 40 42 41 40 39 38 37 38 38 39 39 39 42 45 46 47 47 48
31 27 25 26 24 22 21 20 20 21 20 20 21 21 20 20 20 20 19 18 16 15 14 12 11 11 11 13 14 16 17 18 17 17 18 19 18 17 17 17 17 17 18 19 19 20 19 19 18 19 19 20 20 21 23 25 28 30 33 35 37 37 37 37 38 38 38 41 43 43 41 41 41 43 47 51 52 52 52 55 56 55 54 50 49
32 28 26 25 25 24 23 22 20 19 20 19 20 20 20 20 20 20 19 19 17 16 15 13 12 12 12 13 15 16 17 18 17 17 17 18 18 17 16 16 16 16 16 17 17 18 19 19 19 18 18 18 19 20 22 25 29 33 35 37 39 39 40 40 40 40 41 42 45 48 49 51 54 57 60 61 60 58 59 61 60 57 53 47 43
31 28 26 25 26 26 25 23 21 19 19 18 19 19 20 20 20 20 20 19 19 17 16 15 13 13 13 14 14 16 18 18 17 16 17 18 17 17 17 16 16 16 16 15 16 16 17 18 18 17 17 17 18 20 23 27 32 35 38 40 41 43 43 44 45 45 45 46 49 55 59 62 64 65 64 63 61 60 61 62 62 56 49 44 41
27 24 23 24 25 26 25 22 20 19 18 18 18 18 19 19 19 20 20 20 20 19 18 17 15 15 15 15 15 16 18 17 17 17 17 18 17 17 17 17 17 16 15 14 15 15 16 17 16 16 16 17 18 22 27 32 36 38 40 41 44 46 48 51 53 51 50 50 54 60 63 64 65 65 65 64 62 59 59 63 63 54 47 45 42
26 23 22 22 22 23 22 21 19 18 18 18 18 18 19 19 18 19 19 20 20 20 20 20 18 17 17 16 16 18 19 17 16 17 18 17 18 18 17 18 17 16 15 15 14 15 15 15 16 16 16 18 22 28 33 37 40 43 46 49 52 54 56 58 56 52 49 52 57 62 64 63 62 65 67 66 63 58 56 62 63 53 46 44 42
26 26 24 23 22 21 20 19 18 17 17 17 18 18 18 18 18 19 19 20 20 20 21 21 20 20 20 19 18 19 19 18 17 17 18 18 19 19 19 19 19 18 17 16 16 16 15 15 16 16 18 21 27 33 39 43 47 51 54 56 58 60 59 57 54 50 50 54 59 62 62 58 58 63 66 66 66 61 55 57 58 51 44 41 38
28 29 28 27 25 23 22 21 19 17 17 17 17 17 17 18 18 18 19 19 19 20 20 21 22 22 23 22 21 20 20 20 19 18 18 19 20 21 21 21 21 20 19 19 18 17 16 16 17 18 21 26 32 38 44 49 52 55 57 58 60 62 60 55 52 54 57 59 60 61 60 57 57 62 67 68 67 61 54 50 51 49 44 39 35
31 32 32 30 28 27 25 24 23 21 19 18 18 17 17 17 17 18 18 19 20 20 21 22 24 25 26 27 26 23 21 21 21 20 20 20 21 22 22 22 23 22 22 21 20 17 17 18 20 21 24 30 37 43 48 52 55 58 59 60 61 63 62 58 57 60 60 60 63 64 63 60 59 62 66 67 64 58 52 47 46 46 42 37 31
32 32 32 32 31 30 29 28 27 25 24 23 22 21 20 19 19 19 19 21 21 22 23 24 26 27 28 29 30 27 23 22 22 22 22 23 23 24 23 23 24 24 23 22 20 18 19 20 22 25 28 34 40 46 50 54 57 60 61 62 63 63 63 60 59 60 60 62 65 64 62 61 59 58 59 61 60 55 48 42 40 38 35 33 28
32 32 32 32 32 32 31 30 29 28 27 27 27 26 25 25 24 24 24 24 24 24 25 26 27 28 30 31 32 31 28 26 25 25 25 26 26 26 25 25 26 25 24 22 21 21 21 21 24 27 31 37 44 49 53 55 58 61 63 65 65 64 65 64 61 61 63 65 64 63 62 61 57 54 54 56 56 51 42 35 33 31 29 28 25
32 31 31 31 31 32 31 30 30 30 29 29 29 29 29 30 29 30 29 30 30 30 31 31 32 32 33 34 35 35 34 32 30 28 29 29 29 29 28 28 28 27 25 24 23 22 23 23 26 30 35 39 46 52 56 57 59 62 64 66 64 63 65 67 66 65 66 66 66 66 64 60 56 53 51 49 47 43 35 29 28 27 26 25 24
31 31 31 31 30 30 30 30 30 31 31 32 32 32 33 33 34 35 35 37 38 38 38 38 39 39 38 39 39 40 40 39 36 33 32 33 33 33 32 31 31 30 29 28 27 26 26 26 28 33 38 42 48 54 57 58 60 63 64 65 64 61 61 63 64 66 66 66 66 66 64 61 57 52 45 40 38 34 29 26 26 26 26 25 26
31 31 31 30 29 29 29 30 31 33 34 35 36 37 38 38 39 40 41 42 43 43 44 45 45 45 45 45 45 44 45 44 42 39 37 37 37 36 34 33 32 32 32 32 31 30 30 31 33 37 41 44 49 54 57 59 60 61 62 63 61 58 58 62 65 65 64 62 63 64 64 60 52 43 37 34 33 30 27 26 27 27 27 27 28
33 33 32 31 30 30 31 31 33 36 39 39 40 41 42 43 43 44 45 45 45 46 46 47 47 48 48 48 47 46 46 46 46 45 43 42 41 40 37 34 34 35 36 36 35 34 34 35 38 41 44 46 49 53 56 58 58 58 59 59 59 59 62 67 68 65 63 64 66 65 61 52 42 36 34 33 30 28 27 28 28 28 28 28 27
36 36 36 36 36 35 35 35 37 39 41 42 43 44 44 45 46 46 46 46 46 47 47 48 48 48 49 49 48 47 46 46 46 47 47 46 45 43 41 37 35 36 38 38 38 38 38 38 41 44 46 48 49 52 54 55 57 58 58 59 61 62 63 65 67 68 69 67 62 55 48 42 38 36 34 31 29 28 28 29 29 28 28 28 27
39 40 41 43 42 40 39 39 39 40 40 42 43 44 45 45 46 46 46 46 47 48 48 48 48 49 49 49 48 48 47 47 47 48 49 49 48 48 46 43 39 38 39 40 40 41 40 41 43 45 47 48 50 51 53 55 57 58 57 59 62 61 60 60 61 64 66 61 51 46 43 41 38 35 32 30 29 28 30 30 29 28 27 26 25
44 45 45 45 44 41 40 40 40 40 40 41 42 43 43 44 44 45 46 46 47 48 48 48 48 48 47 48 47 47 48 48 48 49 49 50 51 51 51 49 46 43 41 40 42 43 43 43 44 46 48 50 50 52 53 56 57 57 57 59 61 62 64 64 62 62 61 53 45 43 43 40 36 34 32 30 28 29 30 29 28 27 27 27 26
48 49 49 47 45 44 43 42 41 41 41 41 41 42 43 43 43 44 45 45 46 48 48 48 49 49 48 47 47 47 48 48 48 49 49 50 51 52 53 53 53 51 49 46 44 44 44 45 46 48 49 51 51 52 54 55 56 56 57 58 58 59 61 62 62 63 57 47 43 44 42 38 35 33 30 28 28 29 29 29 29 28 27 26 25
52 52 50 48 47 46 45 44 43 43 43 43 42 42 43 43 43 43 43 44 46 47 47 47 49 50 49 47 46 47 47 47 47 48 48 49 51 52 53 53 53 54 54 53 51 48 46 46 47 48 49 51 51 52 53 54 56 57 57 56 55 54 55 57 61 60 52 44 43 43 39 35 33 30 29 28 29 29 29 29 29 28 27 26 25
54 53 51 49 49 48 46 45 45 46 46 46 46 45 44 44 44 42 42 42 44 45 45 45 45 45 46 46 45 45 45 45 46 46 47 47 48 50 52 53 54 55 55 56 56 56 53 51 51 50 51 51 53 54 55 57 57 57 56 57 56 54 54 58 59 54 46 42 42 39 35 33 32 29 29 29 29 30 30 29 28 27 27 28 27
54 54 52 50 49 48 46 46 47 47 47 47 47 47 46 46 45 43 42 42 43 43 43 43 43 43 43 43 43 43 44 43 44 45 45 46 47 47 48 50 53 55 57 58 59 59 59 59 58 56 56 57 57 58 58 58 56 54 54 56 56 54 55 55 52 47 42 41 39 36 34 32 30 29 30 30 30 30 30 29 28 28 29 29 29
53 51 49 48 46 46 46 46 46 45 45 45 47 47 46 46 45 45 44 42 42 43 43 43 43 43 44 44 44 44 44 43 43 44 45 45 46 46 47 49 51 53 57 60 61 61 61 62 61 62 62 61 61 62 63 62 59 56 55 54 55 54 53 50 46 43 41 39 37 34 32 30 29 29 30 30 30 30 30 29 29 29 29 29 28
51 50 48 47 46 45 45 44 43 43 42 42 45 47 48 48 47 46 44 42 42 43 43 43 44 44 44 45 44 44 45 45 44 45 45 45 45 45 46 48 50 52 54 57 60 61 61 61 61 62 62 62 64 67 69 66 60 56 54 54 54 52 49 45 43 41 40 38 35 32 29 28 29 29 29 30 30 30 29 30 29 30 29 28 27
49 48 47 46 44 43 43 42 41 42 41 41 42 43 44 46 46 45 44 43 43 44 44 44 44 44 44 45 45 44 44 44 43 44 44 45 45 46 46 46 49 51 53 55 56 58 59 60 61 61 61 61 62 62 61 57 54 53 52 53 52 48 45 44 42 40 38 35 31 29 28 28 29 29 29 29 29 29 29 30 30 29 28 27 27
45 42 41 40 40 39 38 38 38 39 40 40 41 40 41 41 42 43 44 44 44 44 45 45 45 45 45 45 45 45 45 44 44 43 43 43 43 43 44 45 48 51 53 53 53 55 57 60 61 60 59 58 56 54 53 52 54 56 55 51 47 45 43 42 40 37 35 32 28 27 28 29 29 29 30 29 29 29 30 31 31 30 29 28 29
42 40 38 37 36 35 34 34 34 35 36 37 37 38 38 38 39 40 42 43 43 44 44 46 46 46 46 46 45 45 44 43 42 41 39 39 38 38 40 43 47 52 54 53 52 53 56 59 61 59 56 54 52 53 56 56 57 57 54 48 44 43 40 38 35 33 31 29 28 28 29 30 30 30 30 30 29 29 29 30 31 31 31 30 30
41 40 38 36 34 32 31 31 31 32 33 33 33 33 33 34 36 37 39 40 41 41 41 43 44 44 43 43 41 39 38 37 36 35 34 34 34 36 41 46 50 55 56 54 53 54 57 58 59 57 53 51 50 53 55 55 55 54 50 44 41 40 37 34 33 31 29 28 29 30 30 31 32 31 31 31 31 31 31 31 31 32 32 32 32
44 42 38 36 35 34 33 32 31 31 32 32 32 31 31 32 32 33 33 33 34 34 35 36 37 37 37 36 35 34 34 34 34 33 33 36 40 45 50 51 50 52 55 55 55 55 54 52 49 50 52 53 54 56 57 57 57 57 52 45 41 38 35 33 32 30 29 29 30 31 32 33 33 32 32 32 32 33 33 32 32 33 33 34 35
46 44 42 39 37 36 35 34 33 33 33 33 34 33 33 33 33 32 30 28 29 31 32 33 32 33 33 33 34 35 34 34 35 35 37 42 49 52 53 50 47 50 57 61 61 59 55 50 49 52 55 55 55 55 56 57 56 54 49 44 39 36 34 33 31 31 31 31 32 33 34 34 33 33 33 33 34 34 35 34 34 34 34 35 36
44 43 42 41 40 38 37 36 35 35 34 35 36 37 36 36 36 35 33 31 31 33 33 33 34 34 34 35 37 37 40 44 47 49 52 56 56 53 50 49 47 47 51 55 56 53 49 48 49 52 54 54 54 55 56 54 52 48 43 39 37 35 33 33 32 32 33 33 34 34 34 35 35 34 35 36 37 36 36 37 36 36 37 38 38
44 41 39 39 40 39 39 38 38 37 36 35 36 37 38 38 37 37 37 36 36 37 38 38 39 38 39 40 39 39 46 55 60 60 64 65 57 50 48 48 47 45 45 46 46 46 46 50 55 59 60 60 57 54 52 49 47 43 39 37 36 35 34 34 34 35 35 36 36 37 36 36 36 36 37 38 40 40 39 40 40 39 39 41 41
46 42 39 38 39 39 39 38 38 37 38 38 38 38 38 39 39 39 40 39 40 42 45 48 51 49 46 44 43 43 48 54 56 56 59 58 53 50 52 51 49 50 51 50 49 50 53 57 61 63 63 60 55 51 47 45 43 41 38 38 37 36 36 36 36 37 38 38 38 38 38 38 39 39 40 41 43 44 43 43 42 43 43 44 44
49 45 43 41 41 40 41 41 40 40 41 42 41 40 40 40 40 41 42 42 46 52 56 59 63 63 55 50 52 54 52 50 49 49 51 52 51 52 54 55 55 56 58 58 59 59 58 57 55 54 54 53 51 48 46 44 44 43 41 40 39 39 39 39 39 39 39 40 40 40 40 40 42 43 45 46 46 47 47 47 47 47 47 47 47
52 50 47 46 45 45 46 46 45 44 43 43 43 42 41 41 41 42 44 45 50 58 62 63 63 64 60 57 59 59 53 51 54 58 60 63 65 64 63 63 62 60 59 60 59 57 54 52 51 50 50 50 51 51 49 48 47 46 44 43 43 43 43 43 42 41 41 41 41 41 42 44 45 48 51 52 51 51 52 53 51 51 51 51 50
54 53 51 50 49 49 49 49 48 47 45 45 44 43 43 43 42 42 44 45 48 56 64 65 61 61 62 63 63 60 55 54 58 62 63 66 70 70 67 65 64 63 61 59 56 53 52 52 52 53 53 53 54 54 54 53 52 50 49 48 48 48 48 48 47 45 44 43 43 44 47 50 53 55 57 57 56 55 57 58 58 56 55 55 53
56 54 53 51 51 51 52 51 50 49 47 46 45 43 43 44 43 42 44 47 47 52 60 64 61 59 59 61 63 65 64 62 64 67 69 69 68 65 63 62 63 63 63 59 55 54 53 53 54 55 56 56 56 56 55 55 54 53 53 53 53 52 52 51 50 50 49 48 48 50 53 57 60 60 60 59 59 59 60 61 61 60 60 58 56
59 57 55 53 52 53 53 52 52 50 49 49 47 45 43 43 42 45 52 58 57 56 61 65 64 63 62 62 64 67 67 66 69 73 75 72 67 64 63 64 65 64 62 58 56 56 56 57 58 59 59 58 58 57 57 57 57 56 56 56 56 55 54 54 53 52 52 52 54 57 60 61 62 60 59 60 62 63 63 61 60 60 60 60 59
63 60 57 55 54 55 55 54 53 52 51 50 49 47 46 44 42 46 58 67 66 63 64 66 65 65 68 69 69 68 67 67 69 71 71 68 65 65 65 66 64 63 60 59 59 60 60 60 60 60 60 59 58 58 58 58 59 59 59 58 57 56 55 54 54 53 54 56 59 62 62 62 60 59 60 63 64 64 62 59 57 57 58 58 58
66 62 59 57 56 56 56 55 54 53 53 52 51 50 50 48 45 48 58 68 70 68 67 67 65 64 65 67 67 67 67 66 66 66 64 63 64 66 66 64 62 60 60 61 61 62 61 61 61 60 60 60 60 59 59 60 60 60 60 59 58 57 56 55 57 59 61 63 64 65 65 64 63 64 66 66 65 63 59 56 55 55 56 56 57
66 63 61 59 58 58 57 56 56 55 54 53 53 54 54 55 54 53 56 63 69 71 70 70 69 68 68 67 66 66 65 64 63 61 61 62 64 65 65 62 61 61 62 62 62 62 61 61 60 59 59 60 60 60 60 60 60 60 59 58 58 58 60 63 65 67 69 69 70 70 69 68 67 66 66 63 61 59 55 52 52 53 54 56 58
65 62 61 62 62 61 58 57 57 56 56 56 59 59 60 61 63 61 58 60 65 68 67 67 68 68 69 69 69 68 68 67 65 64 63 63 63 63 62 61 62 63 63 62 61 61 60 59 59 59 59 59 59 59 59 60 60 59 58 59 61 63 66 70 72 73 72 71 70 70 70 68 67 66 64 61 58 54 50 47 48 50 53 56 60
66 64 63 63 64 63 60 58 58 57 58 61 66 68 66 66 69 69 66 64 63 62 62 64 67 69 70 71 73 74 75 74 73 72 70 69 68 66 64 63 62 61 61 61 61 60 60 59 59 59 59 58 59 59 60 59 58 57 58 60 63 66 69 72 73 72 71 69 67 66 66 65 63 62 60 58 55 52 49 48 49 51 54 57 60
65 64 63 63 65 65 62 61 60 59 61 65 69 69 67 68 70 70 68 66 65 66 68 72 75 77 77 77 78 79 80 80 80 78 76 74 74 73 72 69 66 64 63 63 62 61 61 61 61 61 61 60 59 58 56 54 54 57 61 63 64 64 66 68 69 68 68 68 68 66 65 63 62 61 61 61 61 58 55 54 56 58 61 63 62